Weather History for KSZL - September, 2012

Change the Weather History Date:

Friday, September 7, 2012

  Actual Average Record
Temperature  
Mean Temperature 76 °F -  
Max Temperature 92 °F 82 °F 100 °F (2002)
Min Temperature 59 °F 61 °F 45 °F (2011)
Cooling Degree Days 11    
Growing Degree Days 26 (Base 50)    
Moisture  
Dew Point 66 °F    
Average Humidity 81    
Maximum Humidity 100    
Minimum Humidity 43    
Precipitation  
Precipitation 0.30 in - - ()
Sea Level Pressure  
Sea Level Pressure 29.85 in    
Wind  
Wind Speed 14 mph (NW)    
Max Wind Speed 32 mph    
Max Gust Speed 40 mph    
Visibility 9 miles    
Events Rain , Thunderstorm    
Averages and records for this station are not official NWS values.
T = Trace of Precipitation, MM = Missing Value Source: NWS Daily Summary

Daily Weather History Graph

Daily Weather History Graph

Search for Another Location

Airport or City:

Trip Planner

Search our weather history database for the weather conditions in past years. The results will help you decide how hot, cold, wet, or windy it might be!

Date:

Astronomy

Sep. 07, 2012 Rise Set
Actual Time 6:49 AM CDT 7:34 PM CDT
Civil Twilight 6:22 AM CDT 8:01 PM CDT
Nautical Twilight 5:50 AM CDT 8:32 PM CDT
Astronomical Twilight 5:17 AM CDT 9:05 PM CDT
Moon 11:35 PM CDT (9/7) 1:37 PM CDT (9/7)
Length of Visible Light 13h 39m
Length of Day
12h 45m
Waning Gibbous, 58% of the Moon is Illuminated
Sep 7
Waning Gibbous
Sep 8
Last Quarter
Sep 15
New
Sep 22
First Quarter
Sep 29
Full

Hourly Weather History & Observations

Time (CDT) Temp. Heat Index Dew Point Humidity Pressure Visibility Wind Dir Wind Speed Gust Speed Precip Events Conditions
12:55 AM 74.5 °F - 63.9 °F 69% 29.85 in 10.0 mi South 15.0 mph - N/A   Clear
1:55 AM 73.4 °F - 64.8 °F 74% 29.83 in 10.0 mi South 12.7 mph - N/A   Clear
2:55 AM 72.0 °F - 66.2 °F 82% 29.82 in 10.0 mi South 9.2 mph - N/A   Clear
3:55 AM 70.7 °F - 67.5 °F 89% 29.81 in 10.0 mi South 10.4 mph - N/A   Clear
4:55 AM 71.6 °F - 67.6 °F 87% 29.79 in 10.0 mi SSW 11.5 mph - N/A   Clear
5:55 AM 70.9 °F - 67.8 °F 90% 29.79 in 10.0 mi SSW 9.2 mph - N/A   Clear
6:55 AM 70.3 °F - 67.8 °F 92% 29.81 in 10.0 mi SSW 8.1 mph - N/A   Clear
7:55 AM 73.6 °F - 67.3 °F 81% 29.81 in 10.0 mi SSW 13.8 mph - N/A   Partly Cloudy
8:55 AM 77.9 °F - 66.9 °F 69% 29.83 in 10.0 mi WSW 9.2 mph - N/A   Clear
9:55 AM 81.0 °F 83.6 °F 67.6 °F 64% 29.83 in 10.0 mi SW 11.5 mph - N/A   Partly Cloudy
10:55 AM 85.5 °F 88.2 °F 67.1 °F 54% 29.81 in 10.0 mi WSW 9.2 mph - N/A   Clear
11:55 AM 88.9 °F 91.4 °F 66.0 °F 47% 29.79 in 10.0 mi Variable 6.9 mph - N/A   Clear
12:55 PM 91.0 °F 93.4 °F 65.7 °F 43% 29.76 in 10.0 mi West 10.4 mph - N/A   Clear
1:55 PM 91.6 °F 94.3 °F 66.2 °F 43% 29.76 in 10.0 mi NW 16.1 mph 20.7 mph N/A   Partly Cloudy
2:55 PM 85.6 °F 88.8 °F 68.0 °F 55% 29.77 in 10.0 mi NNW 16.1 mph - N/A   Mostly Cloudy
3:08 PM 84.2 °F 87.3 °F 68.0 °F 58% 29.77 in 10.0 mi NNW 15.0 mph - N/A Thunderstorm Thunderstorm
3:30 PM 82.4 °F 86.3 °F 69.8 °F 66% 29.79 in 10.0 mi NNW 19.6 mph 28.8 mph N/A Rain , Thunderstorm Light Thunderstorms and Rain
3:45 PM 78.8 °F - 69.8 °F 74% 29.79 in 10.0 mi NNW 24.2 mph 29.9 mph N/A Rain , Thunderstorm Light Rain
3:55 PM 76.3 °F - 68.9 °F 78% 29.79 in 10.0 mi North 32.2 mph 39.1 mph 0.01 in Rain , Thunderstorm Light Rain
4:17 PM 71.6 °F - 68.0 °F 88% 29.86 in 2.0 mi NNW 26.5 mph 40.3 mph N/A Rain , Thunderstorm Heavy Rain
4:21 PM 69.8 °F - 66.2 °F 88% 29.87 in 2.0 mi NNW 29.9 mph 40.3 mph N/A Rain , Thunderstorm Rain
4:26 PM 69.8 °F - 68.0 °F 94% 29.88 in 3.0 mi NNW 24.2 mph 39.1 mph N/A Rain , Thunderstorm Heavy Rain
4:55 PM 66.9 °F - 66.7 °F 99% 29.87 in 3.0 mi North 26.5 mph 35.7 mph 0.22 in Rain Heavy Rain
4:56 PM 66.2 °F - 66.2 °F 100% 29.88 in 9.0 mi North 24.2 mph 34.5 mph N/A Rain Rain
5:28 PM 66.2 °F - 66.2 °F 100% 29.86 in 10.0 mi NNE 12.7 mph - N/A Rain Light Rain
5:55 PM 66.6 °F - 66.2 °F 99% 29.86 in 10.0 mi North 10.4 mph - 0.07 in Rain Light Rain
5:57 PM 66.2 °F - 66.2 °F 100% 29.86 in 10.0 mi NNE 9.2 mph - N/A   Scattered Clouds
6:55 PM 66.7 °F - 65.5 °F 96% 29.89 in 10.0 mi North 18.4 mph - 0.00 in   Clear
7:55 PM 65.3 °F - 64.2 °F 96% 29.91 in 10.0 mi NNW 13.8 mph - N/A   Mostly Cloudy
8:36 PM 66.2 °F - 62.6 °F 88% 29.95 in 10.0 mi North 16.1 mph - N/A   Mostly Cloudy
8:55 PM 64.8 °F - 61.5 °F 89% 29.96 in 10.0 mi North 16.1 mph 25.3 mph N/A   Mostly Cloudy
9:00 PM 64.4 °F - 60.8 °F 88% 29.96 in 10.0 mi North 18.4 mph 25.3 mph N/A   Mostly Cloudy
9:55 PM 62.6 °F - 59.2 °F 89% 29.98 in 10.0 mi North 11.5 mph - N/A   Clear
10:55 PM 61.0 °F - 59.5 °F 95% 30.00 in 10.0 mi NNW 10.4 mph - N/A   Partly Cloudy
11:55 PM 59.7 °F - 59.5 °F 99% 30.03 in 10.0 mi WNW 4.6 mph - N/A   Clear